Вернуться в каталог

STARLINK-4346

АктивенСвязьSSO
NORAD 53073·PAYLOAD·🇺🇸 United States

Запущен Jul 11, 2022 с Vandenberg Space Force Base

Loading…

Ближайшие Пролёты (ближайшие 24 часа)

TLE

СвежийSource: CelesTrak SupGP

Эпоха: Sep 14, 2026, 21:02 UTC

1 53073C 22077AG  26257.87687500  .00079682  00000+0  32198-2 0  2572
2 53073  97.6334  89.0081 0005118 288.2251 200.7863 15.24767022    14

Отслеживайте STARLINK-4346 в реальном времени с AllMySat

Download on the App Store